This is the latest recevied weather packets stored in our database for station/object JR4VEV-13. If no packets are shown the sender has not sent any weather packets the latest 1 day(s).
| Time | Temp. | Humidity | Pressure | Rain* | Wind** | Luminosity | Snow |
|---|---|---|---|---|---|---|---|
| 1777969359 | 22.22° C | 32% | 1018.4 hPa | 0 mm | 1.79 m/s, 111° | - | - |
| 1777968758 | 22.78° C | 32% | 1018.3 hPa | 0 mm | 0 m/s | - | - |
| 1777968159 | 22.22° C | 31% | 1018.3 hPa | 0 mm | 0.45 m/s, 103° | - | - |
| 1777967559 | 22.78° C | 32% | 1018.2 hPa | 0 mm | 0 m/s | - | - |
| 1777966958 | 22.78° C | 32% | 1018.2 hPa | 0 mm | 0.89 m/s, 96° | - | - |
| 1777966359 | 23.33° C | 30% | 1018.2 hPa | 0 mm | 0 m/s | - | - |
| 1777965758 | 23.33° C | 29% | 1018.1 hPa | 0 mm | 0.89 m/s, 114° | - | - |
| 1777965159 | 23.33° C | 30% | 1018 hPa | 0 mm | 0 m/s | - | - |
| 1777964559 | 23.33° C | 29% | 1017.9 hPa | 0 mm | 0.89 m/s, 87° | - | - |
| 1777963959 | 23.33° C | 29% | 1018 hPa | 0 mm | 1.34 m/s, 92° | - | - |
| 1777963359 | 23.33° C | 30% | 1018.2 hPa | 0 mm | 0.45 m/s, 134° | - | - |
| 1777962758 | 23.33° C | 28% | 1018.2 hPa | 0 mm | 0.89 m/s, 124° | - | - |
| 1777962159 | 23.89° C | 28% | 1018.2 hPa | 0 mm | 2.24 m/s, 110° | - | - |
| 1777961558 | 23.33° C | 29% | 1018.4 hPa | 0 mm | 0.89 m/s, 138° | - | - |
| 1777960958 | 23.33° C | 29% | 1018.5 hPa | 0 mm | 0.45 m/s, 64° | - | - |
| 1777960357 | 23.33° C | 28% | 1018.6 hPa | 0 mm | 0.45 m/s, 124° | - | - |
| 1777959758 | 23.33° C | 29% | 1018.7 hPa | 0 mm | 2.24 m/s, 89° | - | - |
| 1777959159 | 23.33° C | 29% | 1018.8 hPa | 0 mm | 1.34 m/s, 97° | - | - |
| 1777958558 | 23.33° C | 30% | 1019 hPa | 0 mm | 0.45 m/s, 80° | - | - |
| 1777957957 | 23.33° C | 30% | 1019.2 hPa | 0 mm | 1.34 m/s, 92° | - | - |
| 1777957359 | 22.78° C | 31% | 1019.4 hPa | 0 mm | 0.89 m/s, 105° | - | - |
* Rain latest hour (hover to see other rain measurements)
** Current wind speed in m/s (hover to see current wind gust speed)